Location: Fort Worth, Tx
(32.7431°N, 97.3695°W)
Time: 19:04:17
(UTC-04:00)

Max Valier Satellite - Pass Details

Date: 06 April 2023
Orbit: 444 x 458 km, 97.2° (Epoch: 04 June)

Event Time Altitude Azimuth Distance (km) Brightness Sun altitude
Rises 20:39:19 0° 103° (ESE) 2,438 ? 2.0°
Enters shadow 21:47:45 -51° 170° (S) 10,495 ? -12.1°
Maximum altitude 22:14:50 63° 260° (W) 502 ? -17.5°
